Location: Firdgum
(53.2488°N, 5.5615°E)
Time: 11:54:27
(UTC+00:00)

NOSS 2-1 (C) - Pass Details

Date: 08 December 2019
Orbit: 457 x 1746 km, 63.3° (Epoch: 19 January)

Event Time Altitude Azimuth Distance (km) Brightness Sun altitude
Exits shadow 04:07:43 75° 102° (ESE) 906 4.3 -30.1°
Drops below altitude 10° 04:14:07 10° 130° (SE) 2,973 7.6 -29.1°
Sets 04:17:17 0° 132° (SE) 4,147 8.4 -28.7°
